{"data":{"norad_id":58441,"epoch":"2026-05-24T21:26:50.655840Z","epoch_age_seconds":83940,"freshness":"FRESH","line1":"1 58441U 23183E   26144.89364185  .00000151  00000+0  15018-4 0  9995","line2":"2 58441  43.0032 330.8422 0000960 264.0188  96.0554 15.27576738138396","mean_motion":15.27576738,"eccentricity":9.6e-5,"inclination_deg":43.0032,"raan_deg":330.8422,"arg_perigee_deg":264.0188,"mean_anomaly_deg":96.0554,"bstar":1.5018e-5,"rev_number":13839,"period_min":94.266950011646,"perigee_km":482.40018885562,"apogee_km":483.71753846145,"semimajor_km":6861.1958636585,"source":"CELESTRAK","updated_at":"2026-05-25T13:38:18.622528Z"}}